Time,TemperatureF,DewpointF,PressureIn,WindDirection,WindDirectionDegrees,WindSpeedMPH,WindSpeedGustMPH,Humidity,HourlyPrecipIn,Conditions,Clouds,dailyrainin,SoftwareType,DateUTC
2013-04-09 00:01:00,34.7,26.9,29.69,ESE,113,0.0,1.8,73,0.00,,,0.00,WUHU216HW,2013-04-09 07:01:00,
2013-04-09 00:06:00,34.7,26.9,29.69,SSE,158,2.0,2.2,73,0.00,,,0.00,WUHU216HW,2013-04-09 07:06:00,
2013-04-09 00:11:00,34.7,26.9,29.69,East,90,0.9,2.2,73,0.00,,,0.00,WUHU216HW,2013-04-09 07:11:00,
2013-04-09 00:16:00,34.7,26.9,29.69,ESE,113,0.4,2.2,73,0.00,,,0.00,WUHU216HW,2013-04-09 07:16:00,
2013-04-09 00:21:00,34.7,26.9,29.69,SSE,158,0.4,2.2,73,0.00,,,0.00,WUHU216HW,2013-04-09 07:21:00,
2013-04-09 00:26:00,34.9,27.1,29.69,SSE,158,2.2,2.2,73,0.00,,,0.00,WUHU216HW,2013-04-09 07:26:00,
2013-04-09 00:31:00,34.9,27.1,29.69,SE,135,1.6,2.7,73,0.00,,,0.00,WUHU216HW,2013-04-09 07:31:00,
2013-04-09 00:36:00,34.9,27.1,29.69,SSE,158,2.5,2.7,73,0.00,,,0.00,WUHU216HW,2013-04-09 07:36:00,
2013-04-09 00:41:00,34.9,27.4,29.69,South,180,2.2,3.4,74,0.00,,,0.00,WUHU216HW,2013-04-09 07:41:00,
2013-04-09 00:46:00,35.1,27.5,29.70,South,180,1.8,3.6,74,0.00,,,0.00,WUHU216HW,2013-04-09 07:46:00,
2013-04-09 00:51:00,35.1,27.5,29.69,SE,135,2.2,3.6,74,0.00,,,0.00,WUHU216HW,2013-04-09 07:51:00,
2013-04-09 00:56:00,35.1,27.5,29.69,SSE,158,1.1,3.1,74,0.00,,,0.00,WUHU216HW,2013-04-09 07:56:00,
2013-04-09 01:01:00,35.1,27.5,29.69,South,180,3.4,3.4,74,0.00,,,0.00,WUHU216HW,2013-04-09 08:01:00,
2013-04-09 01:06:00,35.1,27.5,29.69,SSE,158,3.4,3.8,74,0.00,,,0.00,WUHU216HW,2013-04-09 08:06:00,
2013-04-09 01:12:00,35.1,27.5,29.69,SSE,158,2.2,3.8,74,0.00,,,0.00,WUHU216HW,2013-04-09 08:12:00,
2013-04-09 01:17:00,35.1,27.5,29.69,WSW,248,0.4,3.4,74,0.00,,,0.00,WUHU216HW,2013-04-09 08:17:00,
2013-04-09 01:22:00,34.9,27.4,29.69,SW,225,0.4,2.7,74,0.00,,,0.00,WUHU216HW,2013-04-09 08:22:00,
2013-04-09 01:27:00,34.9,27.7,29.69,WSW,248,0.9,1.6,75,0.00,,,0.00,WUHU216HW,2013-04-09 08:27:00,
2013-04-09 01:32:00,34.9,27.7,29.69,West,270,1.1,1.6,75,0.00,,,0.00,WUHU216HW,2013-04-09 08:32:00,
2013-04-09 01:37:00,34.9,27.7,29.68,West,270,1.8,1.8,75,0.00,,,0.00,WUHU216HW,2013-04-09 08:37:00,
2013-04-09 01:42:00,34.7,27.5,29.68,WSW,248,1.1,2.0,75,0.00,,,0.00,WUHU216HW,2013-04-09 08:42:00,
2013-04-09 01:47:00,34.7,27.5,29.68,WSW,248,0.0,2.0,75,0.00,,,0.00,WUHU216HW,2013-04-09 08:47:00,
2013-04-09 01:52:00,34.7,27.5,29.68,WSW,248,0.4,1.8,75,0.00,,,0.00,WUHU216HW,2013-04-09 08:52:00,
2013-04-09 01:57:00,34.7,27.9,29.68,WSW,248,1.1,1.6,76,0.00,,,0.00,WUHU216HW,2013-04-09 08:57:00,
2013-04-09 02:02:00,34.7,27.9,29.68,West,270,1.1,1.8,76,0.00,,,0.00,WUHU216HW,2013-04-09 09:02:00,
2013-04-09 02:07:00,34.6,27.7,29.68,West,270,1.1,1.8,76,0.00,,,0.00,WUHU216HW,2013-04-09 09:07:00,
2013-04-09 02:12:00,34.6,27.7,29.68,WSW,248,0.9,1.3,76,0.00,,,0.00,WUHU216HW,2013-04-09 09:12:00,
2013-04-09 02:17:00,34.6,28.0,29.68,WSW,248,0.9,1.1,77,0.00,,,0.00,WUHU216HW,2013-04-09 09:17:00,
2013-04-09 02:22:00,34.6,28.4,29.68,West,270,1.3,1.8,78,0.00,,,0.00,WUHU216HW,2013-04-09 09:22:00,
2013-04-09 02:27:00,34.4,28.4,29.68,NW,315,2.9,2.9,79,0.00,,,0.00,WUHU216HW,2013-04-09 09:27:00,
2013-04-09 02:32:00,34.2,28.6,29.68,NW,315,1.3,3.4,80,0.00,,,0.00,WUHU216HW,2013-04-09 09:32:00,
2013-04-09 02:37:00,34.2,28.9,29.69,North,0,1.3,3.4,81,0.00,,,0.00,WUHU216HW,2013-04-09 09:37:00,
2013-04-09 02:42:00,34.0,29.0,29.69,NNW,338,1.8,3.1,82,0.00,,,0.00,WUHU216HW,2013-04-09 09:42:00,
2013-04-09 02:47:00,34.0,28.4,29.68,NNW,338,0.7,2.9,80,0.00,,,0.00,WUHU216HW,2013-04-09 09:47:00,
2013-04-09 02:52:00,34.0,28.4,29.68,South,180,2.2,2.9,80,0.00,,,0.00,WUHU216HW,2013-04-09 09:52:00,
2013-04-09 02:57:00,34.2,28.6,29.68,SSW,203,1.1,2.9,80,0.00,,,0.00,WUHU216HW,2013-04-09 09:57:00,
2013-04-09 03:02:00,34.2,28.6,29.68,SSW,203,0.7,2.9,80,0.00,,,0.00,WUHU216HW,2013-04-09 10:02:00,
2013-04-09 03:07:00,34.2,28.6,29.68,SSW,203,0.9,2.5,80,0.00,,,0.00,WUHU216HW,2013-04-09 10:07:00,
2013-04-09 03:12:00,34.2,28.6,29.69,West,270,1.8,1.8,80,0.00,,,0.00,WUHU216HW,2013-04-09 10:12:00,
2013-04-09 03:17:00,34.0,28.4,29.69,WSW,248,1.1,2.5,80,0.00,,,0.00,WUHU216HW,2013-04-09 10:17:00,
2013-04-09 03:22:00,33.8,28.3,29.68,SSW,203,1.8,3.4,80,0.00,,,0.00,WUHU216HW,2013-04-09 10:22:00,
2013-04-09 03:27:00,33.7,28.1,29.69,WSW,248,0.0,3.4,80,0.00,,,0.00,WUHU216HW,2013-04-09 10:27:00,
2013-04-09 03:32:00,33.7,28.1,29.69,WSW,248,0.0,2.5,80,0.00,,,0.00,WUHU216HW,2013-04-09 10:32:00,
2013-04-09 03:37:00,33.5,27.9,29.69,South,180,1.3,1.3,80,0.00,,,0.00,WUHU216HW,2013-04-09 10:37:00,
2013-04-09 03:42:00,33.7,28.1,29.69,South,180,1.1,1.8,80,0.00,,,0.00,WUHU216HW,2013-04-09 10:42:00,
2013-04-09 03:47:00,33.7,28.1,29.69,South,180,0.9,1.8,80,0.00,,,0.00,WUHU216HW,2013-04-09 10:47:00,
2013-04-09 03:52:00,33.7,28.1,29.69,South,180,0.7,1.3,80,0.00,,,0.00,WUHU216HW,2013-04-09 10:52:00,
2013-04-09 03:57:00,33.7,28.1,29.69,South,180,1.6,1.8,80,0.00,,,0.00,WUHU216HW,2013-04-09 10:57:00,
2013-04-09 04:02:00,33.7,28.1,29.69,South,180,0.9,1.8,80,0.00,,,0.00,WUHU216HW,2013-04-09 11:02:00,
2013-04-09 04:07:00,33.5,27.9,29.69,South,180,0.4,1.8,80,0.00,,,0.00,WUHU216HW,2013-04-09 11:07:00,
2013-04-09 04:12:00,33.5,27.9,29.69,SSW,203,0.2,1.8,80,0.00,,,0.00,WUHU216HW,2013-04-09 11:12:00,
2013-04-09 04:17:00,33.5,27.9,29.69,SSW,203,0.0,1.8,80,0.00,,,0.00,WUHU216HW,2013-04-09 11:17:00,
2013-04-09 04:22:00,33.5,27.9,29.69,South,180,0.0,1.6,80,0.00,,,0.00,WUHU216HW,2013-04-09 11:22:00,
2013-04-09 04:27:00,33.5,27.9,29.69,South,180,0.2,1.6,80,0.00,,,0.00,WUHU216HW,2013-04-09 11:27:00,
2013-04-09 04:32:00,33.5,27.9,29.69,SW,225,1.3,1.6,80,0.00,,,0.00,WUHU216HW,2013-04-09 11:32:00,
2013-04-09 04:37:00,33.5,27.9,29.69,WSW,248,1.3,2.5,80,0.00,,,0.00,WUHU216HW,2013-04-09 11:37:00,
2013-04-09 04:42:00,33.3,27.8,29.69,South,180,1.1,2.5,80,0.00,,,0.00,WUHU216HW,2013-04-09 11:42:00,
2013-04-09 04:47:00,33.3,27.8,29.69,SW,225,0.0,1.8,80,0.00,,,0.00,WUHU216HW,2013-04-09 11:47:00,
2013-04-09 04:53:00,33.3,27.8,29.70,SSW,203,0.9,1.8,80,0.00,,,0.00,WUHU216HW,2013-04-09 11:53:00,
2013-04-09 04:58:00,33.1,27.6,29.70,SW,225,1.8,1.8,80,0.00,,,0.00,WUHU216HW,2013-04-09 11:58:00,
2013-04-09 05:03:00,33.1,27.6,29.70,WSW,248,0.4,1.8,80,0.00,,,0.00,WUHU216HW,2013-04-09 12:03:00,
2013-04-09 05:08:00,33.1,27.6,29.70,West,270,1.1,1.8,80,0.00,,,0.00,WUHU216HW,2013-04-09 12:08:00,
2013-04-09 05:13:00,33.1,27.6,29.70,NW,315,1.1,2.2,80,0.00,,,0.00,WUHU216HW,2013-04-09 12:13:00,
2013-04-09 05:18:00,32.9,27.5,29.70,WNW,293,1.8,2.2,80,0.00,,,0.00,WUHU216HW,2013-04-09 12:18:00,
2013-04-09 05:23:00,32.9,27.5,29.71,West,270,0.9,2.2,80,0.00,,,0.00,WUHU216HW,2013-04-09 12:23:00,
2013-04-09 05:28:00,32.9,27.7,29.71,West,270,0.0,1.8,81,0.00,,,0.00,WUHU216HW,2013-04-09 12:28:00,
2013-04-09 05:33:00,33.1,27.9,29.71,West,270,0.0,0.4,81,0.00,,,0.00,WUHU216HW,2013-04-09 12:33:00,
2013-04-09 05:38:00,33.1,27.9,29.71,SW,225,0.0,1.6,81,0.00,,,0.00,WUHU216HW,2013-04-09 12:38:00,
2013-04-09 05:43:00,33.3,28.1,29.71,WSW,248,0.7,2.2,81,0.00,,,0.00,WUHU216HW,2013-04-09 12:43:00,
2013-04-09 05:48:00,33.3,27.8,29.72,WNW,293,1.6,2.5,80,0.00,,,0.00,WUHU216HW,2013-04-09 12:48:00,
2013-04-09 05:53:00,33.1,27.6,29.72,SSW,203,1.1,3.4,80,0.00,,,0.00,WUHU216HW,2013-04-09 12:53:00,
2013-04-09 05:58:00,33.1,27.6,29.72,WSW,248,2.7,3.6,80,0.00,,,0.00,WUHU216HW,2013-04-09 12:58:00,
2013-04-09 06:03:00,33.1,27.6,29.72,WSW,248,2.5,3.6,80,0.00,,,0.00,WUHU216HW,2013-04-09 13:03:00,
2013-04-09 06:08:00,32.9,27.1,29.72,WSW,248,4.5,4.9,79,0.00,,,0.00,WUHU216HW,2013-04-09 13:08:00,
2013-04-09 06:13:00,32.8,27.0,29.72,WSW,248,3.8,4.9,79,0.00,,,0.00,WUHU216HW,2013-04-09 13:13:00,
2013-04-09 06:18:00,32.8,27.0,29.72,West,270,4.0,4.9,79,0.00,,,0.00,WUHU216HW,2013-04-09 13:18:00,
2013-04-09 06:23:00,32.8,27.0,29.73,West,270,2.5,4.9,79,0.00,,,0.00,WUHU216HW,2013-04-09 13:23:00,
2013-04-09 06:28:00,32.8,27.0,29.73,West,270,2.2,4.9,79,0.00,,,0.00,WUHU216HW,2013-04-09 13:28:00,
2013-04-09 06:33:00,32.8,27.0,29.73,WSW,248,3.1,4.5,79,0.00,,,0.00,WUHU216HW,2013-04-09 13:33:00,
2013-04-09 06:38:00,32.6,26.8,29.73,West,270,2.0,5.4,79,0.00,,,0.00,WUHU216HW,2013-04-09 13:38:00,
2013-04-09 06:43:00,32.8,27.3,29.74,WNW,293,2.2,5.4,80,0.00,,,0.00,WUHU216HW,2013-04-09 13:43:00,
2013-04-09 06:48:00,32.8,27.5,29.74,NW,315,1.8,3.4,81,0.00,,,0.00,WUHU216HW,2013-04-09 13:48:00,
2013-04-09 06:53:00,32.8,27.5,29.74,NW,315,1.3,2.5,81,0.00,,,0.00,WUHU216HW,2013-04-09 13:53:00,
2013-04-09 06:58:00,32.9,27.7,29.75,NW,315,2.7,2.7,81,0.00,,,0.00,WUHU216HW,2013-04-09 13:58:00,
2013-04-09 07:03:00,33.1,28.2,29.75,North,0,0.0,2.7,82,0.00,,,0.00,WUHU216HW,2013-04-09 14:03:00,
2013-04-09 07:08:00,33.1,27.9,29.75,North,0,0.0,2.0,81,0.00,,,0.00,WUHU216HW,2013-04-09 14:08:00,
2013-04-09 07:13:00,33.3,28.1,29.75,SW,225,0.9,1.8,81,0.00,,,0.00,WUHU216HW,2013-04-09 14:13:00,
2013-04-09 07:18:00,33.5,28.3,29.75,SE,135,0.9,1.8,81,0.00,,,0.00,WUHU216HW,2013-04-09 14:18:00,
2013-04-09 07:23:00,33.8,28.5,29.75,SSE,158,1.8,1.8,81,0.00,,,0.00,WUHU216HW,2013-04-09 14:23:00,
2013-04-09 07:28:00,34.2,28.9,29.75,South,180,1.1,1.8,81,0.00,,,0.00,WUHU216HW,2013-04-09 14:28:00,
2013-04-09 07:33:00,34.6,29.3,29.76,WSW,248,1.3,1.8,81,0.00,,,0.00,WUHU216HW,2013-04-09 14:33:00,
2013-04-09 07:38:00,34.6,29.0,29.76,West,270,2.5,3.6,80,0.00,,,0.00,WUHU216HW,2013-04-09 14:38:00,
2013-04-09 07:43:00,34.7,29.2,29.76,WSW,248,1.3,3.6,80,0.00,,,0.00,WUHU216HW,2013-04-09 14:43:00,
2013-04-09 07:49:00,34.9,29.0,29.76,WNW,293,0.7,2.5,79,0.00,,,0.00,WUHU216HW,2013-04-09 14:49:00,
2013-04-09 07:54:00,34.9,29.0,29.76,West,270,2.5,3.8,79,0.00,,,0.00,WUHU216HW,2013-04-09 14:54:00,
2013-04-09 07:59:00,34.9,28.7,29.76,NW,315,1.3,3.8,78,0.00,,,0.00,WUHU216HW,2013-04-09 14:59:00,
2013-04-09 08:04:00,34.9,28.7,29.76,WSW,248,2.2,3.4,78,0.00,,,0.00,WUHU216HW,2013-04-09 15:04:00,
2013-04-09 08:09:00,35.3,29.1,29.77,West,270,2.0,3.4,78,0.00,,,0.00,WUHU216HW,2013-04-09 15:09:00,
2013-04-09 08:14:00,35.6,29.4,29.76,WNW,293,2.2,3.4,78,0.00,,,0.00,WUHU216HW,2013-04-09 15:14:00,
2013-04-09 08:19:00,36.0,29.4,29.77,NNW,338,2.0,2.2,77,0.00,,,0.00,WUHU216HW,2013-04-09 15:19:00,
2013-04-09 08:24:00,36.2,29.4,29.77,WNW,293,2.2,3.1,76,0.00,,,0.00,WUHU216HW,2013-04-09 15:24:00,
2013-04-09 08:29:00,36.4,29.2,29.77,WSW,248,0.9,3.1,75,0.00,,,0.00,WUHU216HW,2013-04-09 15:29:00,
2013-04-09 08:34:00,36.7,29.5,29.77,NNW,338,2.9,3.4,75,0.00,,,0.00,WUHU216HW,2013-04-09 15:34:00,
2013-04-09 08:39:00,37.3,30.1,29.77,NNW,338,1.6,3.4,75,0.00,,,0.00,WUHU216HW,2013-04-09 15:39:00,
2013-04-09 08:44:00,37.8,30.2,29.77,NNE,23,1.3,4.0,74,0.00,,,0.00,WUHU216HW,2013-04-09 15:44:00,
2013-04-09 08:49:00,38.0,30.4,29.78,North,0,1.8,4.0,74,0.00,,,0.00,WUHU216HW,2013-04-09 15:49:00,
2013-04-09 08:54:00,38.5,31.0,29.78,North,0,1.3,2.0,74,0.00,,,0.00,WUHU216HW,2013-04-09 15:54:00,
2013-04-09 08:59:00,39.4,31.4,29.78,East,90,1.1,1.8,73,0.00,,,0.00,WUHU216HW,2013-04-09 15:59:00,
2013-04-09 09:05:00,40.0,31.6,29.78,SSE,158,0.2,1.6,72,0.00,,,0.00,WUHU216HW,2013-04-09 16:05:00,
2013-04-09 09:10:00,40.0,31.0,29.78,ESE,113,1.6,3.4,70,0.00,,,0.00,WUHU216HW,2013-04-09 16:10:00,
2013-04-09 09:15:00,39.8,31.2,29.79,SSW,203,1.1,3.4,71,0.01,,,0.01,WUHU216HW,2013-04-09 16:15:00,
2013-04-09 09:20:00,40.1,31.5,29.79,NE,45,0.7,3.4,71,0.03,,,0.03,WUHU216HW,2013-04-09 16:20:00,
2013-04-09 09:25:00,40.3,31.3,29.79,ENE,68,3.8,4.3,70,0.03,,,0.03,WUHU216HW,2013-04-09 16:25:00,
2013-04-09 09:30:00,39.6,31.0,29.79,ENE,68,4.7,4.9,71,0.03,,,0.03,WUHU216HW,2013-04-09 16:30:00,
2013-04-09 09:35:00,39.4,30.8,29.80,East,90,2.9,5.6,71,0.04,,,0.04,WUHU216HW,2013-04-09 16:35:00,
2013-04-09 09:40:00,39.8,31.2,29.80,ESE,113,4.7,6.7,71,0.04,,,0.04,WUHU216HW,2013-04-09 16:40:00,
2013-04-09 09:45:00,40.0,31.3,29.80,ESE,113,4.7,8.3,71,0.04,,,0.04,WUHU216HW,2013-04-09 16:45:00,
2013-04-09 09:50:00,40.1,31.5,29.80,East,90,5.8,8.3,71,0.05,,,0.05,WUHU216HW,2013-04-09 16:50:00,
2013-04-09 09:55:00,40.1,30.4,29.80,East,90,2.9,7.6,68,0.05,,,0.05,WUHU216HW,2013-04-09 16:55:00,
2013-04-09 10:00:00,40.3,31.3,29.80,SE,135,2.7,6.7,70,0.06,,,0.06,WUHU216HW,2013-04-09 17:00:00,
2013-04-09 10:05:00,40.9,31.9,29.80,East,90,3.6,6.5,70,0.06,,,0.06,WUHU216HW,2013-04-09 17:05:00,
2013-04-09 10:10:00,40.9,30.7,29.80,NE,45,4.5,5.6,67,0.06,,,0.06,WUHU216HW,2013-04-09 17:10:00,
2013-04-09 10:15:00,40.5,30.3,29.80,NNE,23,4.0,5.6,67,0.05,,,0.06,WUHU216HW,2013-04-09 17:15:00,
2013-04-09 10:20:00,40.3,29.4,29.81,NE,45,4.5,6.0,65,0.03,,,0.06,WUHU216HW,2013-04-09 17:20:00,
2013-04-09 10:25:00,40.0,29.4,29.81,SSE,158,1.8,6.7,66,0.04,,,0.07,WUHU216HW,2013-04-09 17:25:00,
2013-04-09 10:30:00,40.5,30.3,29.81,SW,225,1.1,6.7,67,0.04,,,0.07,WUHU216HW,2013-04-09 17:30:00,
2013-04-09 10:35:00,41.0,31.3,29.81,SSW,203,1.3,2.5,68,0.03,,,0.07,WUHU216HW,2013-04-09 17:35:00,
2013-04-09 10:40:00,41.2,30.3,29.81,ENE,68,2.0,4.0,65,0.03,,,0.07,WUHU216HW,2013-04-09 17:40:00,
2013-04-09 10:45:00,41.2,30.7,29.82,SE,135,1.8,15.0,66,0.02,,,0.07,WUHU216HW,2013-04-09 17:45:00,
2013-04-09 10:50:00,41.0,29.8,29.82,WNW,293,8.5,15.0,64,0.02,,,0.07,WUHU216HW,2013-04-09 17:50:00,
2013-04-09 10:55:00,40.7,29.4,29.82,West,270,5.4,9.8,64,0.02,,,0.07,WUHU216HW,2013-04-09 17:55:00,
2013-04-09 11:00:00,41.0,29.8,29.82,NW,315,2.5,9.2,64,0.02,,,0.08,WUHU216HW,2013-04-09 18:00:00,
2013-04-09 11:05:00,42.1,30.0,29.82,WNW,293,6.3,10.5,62,0.02,,,0.08,WUHU216HW,2013-04-09 18:05:00,
2013-04-09 11:10:00,42.8,31.1,29.82,WNW,293,6.5,10.5,63,0.02,,,0.08,WUHU216HW,2013-04-09 18:10:00,
2013-04-09 11:15:00,43.6,31.0,29.82,WSW,248,8.5,10.7,61,0.02,,,0.08,WUHU216HW,2013-04-09 18:15:00,
2013-04-09 11:20:00,43.9,31.0,29.82,NW,315,10.5,10.7,60,0.02,,,0.08,WUHU216HW,2013-04-09 18:20:00,
2013-04-09 11:25:00,44.3,30.4,29.82,NW,315,8.3,10.5,58,0.01,,,0.08,WUHU216HW,2013-04-09 18:25:00,
2013-04-09 11:31:00,45.5,32.0,29.82,NNE,23,4.3,10.5,59,0.01,,,0.08,WUHU216HW,2013-04-09 18:31:00,
2013-04-09 11:36:00,46.1,30.2,29.82,WNW,293,9.4,10.7,54,0.01,,,0.08,WUHU216HW,2013-04-09 18:36:00,
2013-04-09 11:41:00,46.1,30.7,29.82,WSW,248,7.2,12.1,55,0.01,,,0.08,WUHU216HW,2013-04-09 18:41:00,
2013-04-09 11:46:00,46.1,29.3,29.82,NW,315,11.9,12.1,52,0.01,,,0.08,WUHU216HW,2013-04-09 18:46:00,
2013-04-09 11:51:00,45.7,29.1,29.82,NNW,338,5.6,13.2,52,0.01,,,0.08,WUHU216HW,2013-04-09 18:51:00,
2013-04-09 11:56:00,46.1,28.9,29.82,NW,315,9.6,13.2,51,0.01,,,0.08,WUHU216HW,2013-04-09 18:56:00,
2013-04-09 12:01:00,46.1,28.9,29.82,SW,225,6.9,11.4,51,0.00,,,0.08,WUHU216HW,2013-04-09 19:01:00,
2013-04-09 12:06:00,46.1,28.9,29.82,West,270,11.0,12.3,51,0.00,,,0.08,WUHU216HW,2013-04-09 19:06:00,
2013-04-09 12:11:00,45.9,28.8,29.82,West,270,6.9,12.3,51,0.00,,,0.08,WUHU216HW,2013-04-09 19:11:00,
2013-04-09 12:16:00,46.4,28.8,29.83,West,270,8.3,11.2,50,0.00,,,0.08,WUHU216HW,2013-04-09 19:16:00,
2013-04-09 12:21:00,46.3,28.1,29.83,South,180,3.4,11.4,49,0.00,,,0.08,WUHU216HW,2013-04-09 19:21:00,
2013-04-09 12:26:00,46.6,28.5,29.83,WSW,248,8.5,13.2,49,0.00,,,0.08,WUHU216HW,2013-04-09 19:26:00,
2013-04-09 12:31:00,47.2,28.9,29.83,WSW,248,8.1,15.7,49,0.00,,,0.08,WUHU216HW,2013-04-09 19:31:00,
2013-04-09 12:36:00,47.3,26.9,29.83,West,270,10.5,18.6,45,0.00,,,0.08,WUHU216HW,2013-04-09 19:36:00,
2013-04-09 12:41:00,46.8,26.5,29.83,WNW,293,13.4,18.6,45,0.00,,,0.08,WUHU216HW,2013-04-09 19:41:00,
2013-04-09 12:46:00,46.6,26.3,29.83,WNW,293,6.5,16.3,45,0.00,,,0.08,WUHU216HW,2013-04-09 19:46:00,
2013-04-09 12:51:00,47.0,26.6,29.83,WSW,248,9.2,13.4,45,0.00,,,0.08,WUHU216HW,2013-04-09 19:51:00,
2013-04-09 12:56:00,46.6,26.3,29.83,NW,315,9.4,15.0,45,0.00,,,0.08,WUHU216HW,2013-04-09 19:56:00,
2013-04-09 13:01:00,46.8,25.9,29.84,SW,225,9.2,16.1,44,0.00,,,0.08,WUHU216HW,2013-04-09 20:01:00,
2013-04-09 13:06:00,47.2,26.7,29.84,NW,315,8.7,16.1,45,0.00,,,0.08,WUHU216HW,2013-04-09 20:06:00,
2013-04-09 13:11:00,46.8,26.5,29.84,WNW,293,6.9,13.9,45,0.00,,,0.08,WUHU216HW,2013-04-09 20:11:00,
2013-04-09 13:16:00,46.4,25.0,29.84,WNW,293,11.4,16.3,43,0.00,,,0.08,WUHU216HW,2013-04-09 20:16:00,
2013-04-09 13:21:00,45.7,24.9,29.84,WNW,293,8.5,16.3,44,0.00,,,0.08,WUHU216HW,2013-04-09 20:21:00,
2013-04-09 13:26:00,46.1,25.2,29.84,WSW,248,8.5,15.2,44,0.00,,,0.08,WUHU216HW,2013-04-09 20:26:00,
2013-04-09 13:31:00,46.3,24.8,29.85,NNW,338,8.7,17.0,43,0.00,,,0.08,WUHU216HW,2013-04-09 20:31:00,
2013-04-09 13:36:00,45.7,24.4,29.85,West,270,13.4,17.0,43,0.00,,,0.08,WUHU216HW,2013-04-09 20:36:00,
2013-04-09 13:41:00,45.4,24.6,29.85,WNW,293,11.4,17.2,44,0.00,,,0.08,WUHU216HW,2013-04-09 20:41:00,
2013-04-09 13:46:00,45.4,24.0,29.85,North,0,8.3,17.2,43,0.00,,,0.08,WUHU216HW,2013-04-09 20:46:00,
2013-04-09 13:51:00,45.2,23.9,29.85,NW,315,9.8,16.6,43,0.00,,,0.08,WUHU216HW,2013-04-09 20:51:00,
2013-04-09 13:56:00,45.7,22.8,29.85,NNW,338,7.4,15.2,40,0.00,,,0.08,WUHU216HW,2013-04-09 20:56:00,
2013-04-09 14:01:00,45.2,21.6,29.85,WSW,248,15.0,20.4,39,0.00,,,0.08,WUHU216HW,2013-04-09 21:01:00,
2013-04-09 14:06:00,45.4,22.4,29.85,WNW,293,6.5,20.4,40,0.00,,,0.08,WUHU216HW,2013-04-09 21:06:00,
2013-04-09 14:12:00,45.5,23.7,29.85,WNW,293,10.7,18.6,42,0.00,,,0.08,WUHU216HW,2013-04-09 21:12:00,
2013-04-09 14:17:00,45.2,22.2,29.85,NNW,338,16.3,16.3,40,0.00,,,0.08,WUHU216HW,2013-04-09 21:17:00,
2013-04-09 14:22:00,44.5,21.6,29.85,NW,315,9.4,16.3,40,0.00,,,0.08,WUHU216HW,2013-04-09 21:22:00,
2013-04-09 14:27:00,44.6,21.8,29.85,WSW,248,4.7,16.1,40,0.00,,,0.08,WUHU216HW,2013-04-09 21:27:00,
2013-04-09 14:32:00,45.2,23.3,29.86,West,270,4.9,16.1,42,0.00,,,0.08,WUHU216HW,2013-04-09 21:32:00,
2013-04-09 14:37:00,45.7,22.8,29.86,WSW,248,9.6,14.1,40,0.00,,,0.08,WUHU216HW,2013-04-09 21:37:00,
2013-04-09 14:42:00,45.7,23.9,29.86,WNW,293,5.8,14.3,42,0.00,,,0.08,WUHU216HW,2013-04-09 21:42:00,
2013-04-09 14:47:00,46.1,23.0,29.86,WNW,293,9.8,14.5,40,0.00,,,0.08,WUHU216HW,2013-04-09 21:47:00,
2013-04-09 14:52:00,45.7,21.4,29.87,West,270,8.3,17.4,38,0.00,,,0.08,WUHU216HW,2013-04-09 21:52:00,
2013-04-09 14:57:00,45.2,21.6,29.87,WSW,248,13.2,17.4,39,0.00,,,0.08,WUHU216HW,2013-04-09 21:57:00,
2013-04-09 15:02:00,45.0,21.4,29.87,WSW,248,8.1,15.4,39,0.00,,,0.08,WUHU216HW,2013-04-09 22:02:00,
2013-04-09 15:07:00,45.0,21.4,29.87,NW,315,8.1,15.4,39,0.00,,,0.08,WUHU216HW,2013-04-09 22:07:00,
2013-04-09 15:12:00,44.8,21.2,29.87,West,270,9.6,15.0,39,0.00,,,0.08,WUHU216HW,2013-04-09 22:12:00,
2013-04-09 15:17:00,45.0,22.2,29.87,WNW,293,8.3,15.2,40,0.00,,,0.08,WUHU216HW,2013-04-09 22:17:00,
2013-04-09 15:22:00,45.4,22.4,29.88,West,270,6.3,15.2,40,0.00,,,0.08,WUHU216HW,2013-04-09 22:22:00,
2013-04-09 15:27:00,44.8,21.2,29.88,WNW,293,7.2,15.0,39,0.00,,,0.08,WUHU216HW,2013-04-09 22:27:00,
2013-04-09 15:32:00,44.5,21.6,29.88,NNW,338,10.5,15.0,40,0.00,,,0.08,WUHU216HW,2013-04-09 22:32:00,
2013-04-09 15:37:00,44.1,21.3,29.89,SW,225,9.4,14.3,40,0.00,,,0.08,WUHU216HW,2013-04-09 22:37:00,
2013-04-09 15:42:00,43.9,21.2,29.89,NW,315,6.3,15.2,40,0.00,,,0.08,WUHU216HW,2013-04-09 22:42:00,
2013-04-09 15:47:00,44.3,21.4,29.89,West,270,8.5,15.2,40,0.00,,,0.08,WUHU216HW,2013-04-09 22:47:00,
2013-04-09 15:52:00,45.0,22.2,29.89,NW,315,12.5,15.0,40,0.00,,,0.08,WUHU216HW,2013-04-09 22:52:00,
2013-04-09 15:57:00,44.6,19.8,29.89,WNW,293,13.4,18.3,37,0.00,,,0.08,WUHU216HW,2013-04-09 22:57:00,
2013-04-09 16:02:00,43.9,19.8,29.90,NW,315,14.3,18.3,38,0.00,,,0.08,WUHU216HW,2013-04-09 23:02:00,
2013-04-09 16:07:00,43.2,19.8,29.90,NW,315,6.0,17.2,39,0.00,,,0.08,WUHU216HW,2013-04-09 23:07:00,
2013-04-09 16:12:00,43.4,20.6,29.90,NNW,338,4.7,14.5,40,0.00,,,0.08,WUHU216HW,2013-04-09 23:12:00,
2013-04-09 16:17:00,43.7,21.5,29.90,NW,315,10.5,14.5,41,0.00,,,0.08,WUHU216HW,2013-04-09 23:17:00,
2013-04-09 16:22:00,43.7,21.5,29.90,West,270,5.4,12.8,41,0.00,,,0.08,WUHU216HW,2013-04-09 23:22:00,
2013-04-09 16:27:00,43.7,21.0,29.90,North,0,10.3,11.9,40,0.00,,,0.08,WUHU216HW,2013-04-09 23:27:00,
2013-04-09 16:32:00,43.4,20.0,29.90,NW,315,10.3,10.3,39,0.00,,,0.08,WUHU216HW,2013-04-09 23:32:00,
2013-04-09 16:38:00,43.0,20.4,29.90,NW,315,6.7,12.5,40,0.00,,,0.08,WUHU216HW,2013-04-09 23:38:00,
2013-04-09 16:43:00,42.8,20.7,29.91,NW,315,5.8,13.9,41,0.00,,,0.08,WUHU216HW,2013-04-09 23:43:00,
2013-04-09 16:48:00,42.8,20.7,29.91,WSW,248,5.4,13.9,41,0.00,,,0.08,WUHU216HW,2013-04-09 23:48:00,
2013-04-09 16:53:00,42.8,21.2,29.91,NW,315,8.7,13.4,42,0.00,,,0.08,WUHU216HW,2013-04-09 23:53:00,
2013-04-09 16:58:00,42.3,20.7,29.91,NW,315,15.7,15.7,42,0.00,,,0.08,WUHU216HW,2013-04-09 23:58:00,
2013-04-09 17:03:00,42.3,20.7,29.92,NW,315,11.4,15.7,42,0.00,,,0.08,WUHU216HW,2013-04-10 00:03:00,
2013-04-09 17:08:00,42.1,20.6,29.92,WNW,293,7.6,15.7,42,0.00,,,0.08,WUHU216HW,2013-04-10 00:08:00,
2013-04-09 17:13:00,41.6,20.1,29.92,West,270,6.5,19.2,42,0.00,,,0.08,WUHU216HW,2013-04-10 00:13:00,
2013-04-09 17:18:00,41.4,19.9,29.92,West,270,7.6,19.2,42,0.00,,,0.08,WUHU216HW,2013-04-10 00:18:00,
2013-04-09 17:23:00,41.2,19.7,29.92,WNW,293,10.3,13.4,42,0.00,,,0.08,WUHU216HW,2013-04-10 00:23:00,
2013-04-09 17:28:00,40.7,19.8,29.93,WNW,293,9.8,15.2,43,0.00,,,0.08,WUHU216HW,2013-04-10 00:28:00,
2013-04-09 17:33:00,40.1,19.8,29.93,NW,315,4.9,15.2,44,0.00,,,0.08,WUHU216HW,2013-04-10 00:33:00,
2013-04-09 17:38:00,40.0,19.6,29.93,NW,315,12.5,14.3,44,0.00,,,0.08,WUHU216HW,2013-04-10 00:38:00,
2013-04-09 17:43:00,39.8,20.0,29.93,West,270,9.2,18.3,45,0.00,,,0.08,WUHU216HW,2013-04-10 00:43:00,
2013-04-09 17:48:00,39.4,19.7,29.93,WSW,248,13.9,18.3,45,0.00,,,0.08,WUHU216HW,2013-04-10 00:48:00,
2013-04-09 17:53:00,39.2,20.1,29.93,West,270,10.5,14.3,46,0.00,,,0.08,WUHU216HW,2013-04-10 00:53:00,
2013-04-09 17:58:00,38.9,19.2,29.93,WSW,248,11.4,14.3,45,0.00,,,0.08,WUHU216HW,2013-04-10 00:58:00,
2013-04-09 18:03:00,38.7,19.1,29.94,West,270,11.6,15.7,45,0.00,,,0.08,WUHU216HW,2013-04-10 01:03:00,
2013-04-09 18:08:00,38.3,18.7,29.93,West,270,9.4,15.7,45,0.00,,,0.08,WUHU216HW,2013-04-10 01:08:00,
2013-04-09 18:13:00,38.0,18.4,29.93,WNW,293,12.1,13.9,45,0.00,,,0.08,WUHU216HW,2013-04-10 01:13:00,
2013-04-09 18:18:00,37.8,18.3,29.93,WNW,293,14.3,16.1,45,0.00,,,0.08,WUHU216HW,2013-04-10 01:18:00,
2013-04-09 18:23:00,37.6,18.1,29.93,NNW,338,9.8,18.3,45,0.00,,,0.08,WUHU216HW,2013-04-10 01:23:00,
2013-04-09 18:28:00,37.3,17.7,29.93,West,270,10.1,18.3,45,0.00,,,0.08,WUHU216HW,2013-04-10 01:28:00,
2013-04-09 18:33:00,36.9,17.5,29.94,NNW,338,10.7,16.3,45,0.00,,,0.08,WUHU216HW,2013-04-10 01:33:00,
2013-04-09 18:38:00,36.5,17.1,29.94,WNW,293,10.7,13.6,45,0.00,,,0.08,WUHU216HW,2013-04-10 01:38:00,
2013-04-09 18:43:00,36.4,17.5,29.94,WNW,293,10.3,13.6,46,0.00,,,0.08,WUHU216HW,2013-04-10 01:43:00,
2013-04-09 18:48:00,36.0,17.1,29.94,NW,315,7.6,13.4,46,0.00,,,0.08,WUHU216HW,2013-04-10 01:48:00,
2013-04-09 18:53:00,35.5,17.2,29.94,WSW,248,8.9,13.4,47,0.00,,,0.08,WUHU216HW,2013-04-10 01:53:00,
2013-04-09 18:58:00,35.3,17.5,29.94,WSW,248,6.9,11.2,48,0.00,,,0.08,WUHU216HW,2013-04-10 01:58:00,
2013-04-09 19:03:00,35.1,17.4,29.95,WSW,248,6.9,11.0,48,0.00,,,0.08,WUHU216HW,2013-04-10 02:03:00,
2013-04-09 19:08:00,34.9,17.2,29.94,NW,315,11.4,11.4,48,0.00,,,0.08,WUHU216HW,2013-04-10 02:08:00,
2013-04-09 19:13:00,34.6,17.3,29.95,West,270,6.3,11.4,49,0.00,,,0.08,WUHU216HW,2013-04-10 02:13:00,
2013-04-09 19:18:00,34.6,17.3,29.95,WSW,248,4.5,11.4,49,0.00,,,0.08,WUHU216HW,2013-04-10 02:18:00,
2013-04-09 19:23:00,34.2,16.9,29.95,West,270,5.8,11.4,49,0.00,,,0.08,WUHU216HW,2013-04-10 02:23:00,
2013-04-09 19:28:00,34.2,16.9,29.95,SW,225,8.3,11.4,49,0.00,,,0.08,WUHU216HW,2013-04-10 02:28:00,
2013-04-09 19:33:00,34.0,17.3,29.95,West,270,4.3,10.5,50,0.00,,,0.08,WUHU216HW,2013-04-10 02:33:00,
2013-04-09 19:38:00,33.8,17.6,29.95,WNW,293,4.3,13.9,51,0.00,,,0.08,WUHU216HW,2013-04-10 02:38:00,
2013-04-09 19:43:00,33.7,17.4,29.95,WNW,293,7.6,13.9,51,0.00,,,0.08,WUHU216HW,2013-04-10 02:43:00,
2013-04-09 19:48:00,33.5,17.2,29.96,West,270,8.1,11.6,51,0.00,,,0.08,WUHU216HW,2013-04-10 02:48:00,
2013-04-09 19:53:00,33.5,17.6,29.96,WSW,248,8.3,10.3,52,0.00,,,0.08,WUHU216HW,2013-04-10 02:53:00,
2013-04-09 19:58:00,33.3,17.5,29.96,West,270,3.6,10.7,52,0.00,,,0.08,WUHU216HW,2013-04-10 02:58:00,
2013-04-09 20:03:00,33.3,17.5,29.96,WSW,248,4.5,10.7,52,0.00,,,0.08,WUHU216HW,2013-04-10 03:03:00,
2013-04-09 20:08:00,33.1,17.3,29.96,West,270,6.0,7.8,52,0.00,,,0.08,WUHU216HW,2013-04-10 03:08:00,
2013-04-09 20:13:00,32.9,17.2,29.97,SW,225,1.8,8.1,52,0.00,,,0.08,WUHU216HW,2013-04-10 03:13:00,
2013-04-09 20:18:00,32.9,17.2,29.97,West,270,0.7,8.1,52,0.00,,,0.08,WUHU216HW,2013-04-10 03:18:00,
2013-04-09 20:23:00,32.8,17.5,29.97,NW,315,3.6,5.4,53,0.00,,,0.08,WUHU216HW,2013-04-10 03:23:00,
2013-04-09 20:31:00,32.8,17.5,29.98,WNW,293,2.0,4.9,53,0.00,,,0.08,WUHU216HW,2013-04-10 03:31:00,
2013-04-09 20:35:00,32.6,17.3,29.98,East,90,1.3,4.0,53,0.00,,,0.08,WUHU216HW,2013-04-10 03:35:00,
2013-04-09 20:40:00,32.4,17.1,29.98,SE,135,0.0,1.8,53,0.00,,,0.08,WUHU216HW,2013-04-10 03:40:00,
2013-04-09 20:45:00,32.2,17.4,29.98,ESE,113,0.0,1.6,54,0.00,,,0.08,WUHU216HW,2013-04-10 03:45:00,
2013-04-09 20:50:00,32.0,17.6,29.98,SSE,158,1.6,1.8,55,0.00,,,0.08,WUHU216HW,2013-04-10 03:50:00,
2013-04-09 20:55:00,32.0,17.6,29.99,SSE,158,1.1,2.9,55,0.00,,,0.08,WUHU216HW,2013-04-10 03:55:00,
2013-04-09 21:00:00,32.0,17.6,29.99,SSW,203,0.4,2.9,55,0.00,,,0.08,WUHU216HW,2013-04-10 04:00:00,
2013-04-09 21:05:00,31.7,17.3,30.00,NNE,23,0.9,1.6,55,0.00,,,0.08,WUHU216HW,2013-04-10 04:05:00,
2013-04-09 21:10:00,31.3,17.4,30.00,SSW,203,1.6,1.6,56,0.00,,,0.08,WUHU216HW,2013-04-10 04:10:00,
2013-04-09 21:15:00,31.3,17.4,30.00,SE,135,1.3,1.8,56,0.00,,,0.08,WUHU216HW,2013-04-10 04:15:00,
2013-04-09 21:20:00,31.3,17.8,30.00,ESE,113,1.8,1.8,57,0.00,,,0.08,WUHU216HW,2013-04-10 04:20:00,
2013-04-09 21:25:00,31.3,17.8,30.00,SE,135,0.9,2.7,57,0.00,,,0.08,WUHU216HW,2013-04-10 04:25:00,
2013-04-09 21:30:00,31.1,18.1,30.00,SE,135,1.1,2.7,58,0.00,,,0.08,WUHU216HW,2013-04-10 04:30:00,
2013-04-09 21:35:00,31.0,17.9,30.00,SSE,158,1.6,2.5,58,0.00,,,0.08,WUHU216HW,2013-04-10 04:35:00,
2013-04-09 21:40:00,30.8,18.1,30.00,ENE,68,1.6,4.3,59,0.00,,,0.08,WUHU216HW,2013-04-10 04:40:00,
2013-04-09 21:45:00,30.8,19.3,30.00,NNE,23,1.8,5.4,62,0.00,,,0.08,WUHU216HW,2013-04-10 04:45:00,
2013-04-09 21:50:00,31.1,19.6,30.00,North,0,4.7,5.6,62,0.00,,,0.08,WUHU216HW,2013-04-10 04:50:00,
2013-04-09 21:55:00,31.3,19.8,30.01,WNW,293,4.3,5.6,62,0.00,,,0.08,WUHU216HW,2013-04-10 04:55:00,
2013-04-09 22:00:00,31.3,20.5,30.01,NE,45,5.4,6.3,64,0.00,,,0.08,WUHU216HW,2013-04-10 05:00:00,
2013-04-09 22:05:00,31.7,21.2,30.00,North,0,2.7,6.3,65,0.00,,,0.08,WUHU216HW,2013-04-10 05:05:00,
2013-04-09 22:10:00,31.9,21.4,30.01,NNW,338,4.7,6.0,65,0.00,,,0.08,WUHU216HW,2013-04-10 05:10:00,
2013-04-09 22:15:00,31.9,21.8,30.01,NNW,338,4.3,8.7,66,0.00,,,0.08,WUHU216HW,2013-04-10 05:15:00,
2013-04-09 22:20:00,32.0,21.6,30.00,NNW,338,1.8,8.7,65,0.00,,,0.08,WUHU216HW,2013-04-10 05:20:00,
2013-04-09 22:25:00,32.0,22.0,30.01,NNE,23,5.1,7.4,66,0.00,,,0.08,WUHU216HW,2013-04-10 05:25:00,
2013-04-09 22:30:00,32.0,22.0,30.01,NNE,23,2.5,7.4,66,0.00,,,0.08,WUHU216HW,2013-04-10 05:30:00,
2013-04-09 22:35:00,32.2,22.2,30.01,NNE,23,2.7,5.1,66,0.00,,,0.08,WUHU216HW,2013-04-10 05:35:00,
2013-04-09 22:40:00,32.2,21.8,30.01,NNE,23,0.7,4.7,65,0.00,,,0.08,WUHU216HW,2013-04-10 05:40:00,
2013-04-09 22:45:00,32.0,22.0,30.01,ENE,68,3.8,4.7,66,0.00,,,0.08,WUHU216HW,2013-04-10 05:45:00,
2013-04-09 22:50:00,32.0,22.0,30.01,NE,45,1.6,4.7,66,0.00,,,0.08,WUHU216HW,2013-04-10 05:50:00,
2013-04-09 22:55:00,32.0,22.3,30.01,North,0,2.7,4.7,67,0.00,,,0.08,WUHU216HW,2013-04-10 05:55:00,
2013-04-09 23:00:00,32.0,22.0,30.01,North,0,1.6,4.9,66,0.00,,,0.08,WUHU216HW,2013-04-10 06:00:00,
2013-04-09 23:05:00,31.9,21.8,30.01,NE,45,0.7,4.9,66,0.00,,,0.08,WUHU216HW,2013-04-10 06:05:00,
2013-04-09 23:10:00,31.9,21.8,30.01,NNW,338,1.8,4.3,66,0.00,,,0.08,WUHU216HW,2013-04-10 06:10:00,
2013-04-09 23:15:00,31.9,21.8,30.01,NNE,23,2.5,8.1,66,0.00,,,0.08,WUHU216HW,2013-04-10 06:15:00,
2013-04-09 23:20:00,31.9,21.8,30.01,NE,45,3.4,8.1,66,0.00,,,0.08,WUHU216HW,2013-04-10 06:20:00,
2013-04-09 23:25:00,32.0,22.3,30.01,NNE,23,5.8,6.7,67,0.00,,,0.08,WUHU216HW,2013-04-10 06:25:00,
2013-04-09 23:30:00,32.2,22.9,30.01,NNE,23,6.3,7.6,68,0.00,,,0.08,WUHU216HW,2013-04-10 06:30:00,
2013-04-09 23:35:00,32.4,22.7,30.02,NNW,338,3.6,8.3,67,0.00,,,0.08,WUHU216HW,2013-04-10 06:35:00,
2013-04-09 23:40:00,32.6,22.8,30.02,North,0,4.7,8.3,67,0.00,,,0.08,WUHU216HW,2013-04-10 06:40:00,
2013-04-09 23:45:00,32.6,22.4,30.02,NNE,23,4.0,7.8,66,0.00,,,0.08,WUHU216HW,2013-04-10 06:45:00,
2013-04-09 23:50:00,32.6,22.4,30.02,NE,45,4.7,8.1,66,0.00,,,0.08,WUHU216HW,2013-04-10 06:50:00,
2013-04-09 23:55:00,32.4,22.0,30.02,North,0,4.3,9.2,65,0.00,,,0.08,WUHU216HW,2013-04-10 06:55:00,